This is the latest recevied weather packets stored in our database for station/object KB3KAV. If no packets are shown the sender has not sent any weather packets the latest 10 day(s).
| Time | Temp. | Humidity | Pressure | Rain* | Wind** | Luminosity | Snow |
|---|---|---|---|---|---|---|---|
| 1787903617 | 17.22° C | 95% | 1044.5 hPa | 0 mm | - | 0 W/m² | - |
| 1787903014 | 17.22° C | 95% | 1044.5 hPa | 0 mm | - | 0 W/m² | - |
| 1787902411 | 17.22° C | 95% | 1044.6 hPa | 0 mm | - | 0 W/m² | - |
| 1787901808 | 17.22° C | 95% | 1044.8 hPa | 0 mm | - | 0 W/m² | - |
| 1787901205 | 17.22° C | 95% | 1044.6 hPa | 0 mm | - | 0 W/m² | - |
| 1787900601 | 17.78° C | 95% | 1044.9 hPa | 0 mm | - | 0 W/m² | - |
| 1787900001 | 17.78° C | 95% | 1044.6 hPa | 0 mm | - | 0 W/m² | - |
| 1787899398 | 17.22° C | 95% | 1044.6 hPa | 0 mm | - | 0 W/m² | - |
| 1787898794 | 17.22° C | 95% | 1044.4 hPa | 0 mm | - | 0 W/m² | - |
| 1787898192 | 17.22° C | 95% | 1043.9 hPa | 0 mm | - | 0 W/m² | - |
| 1787897587 | 17.78° C | 95% | 1044.1 hPa | 0 mm | - | 0 W/m² | - |
| 1787896987 | 17.78° C | 95% | 1043.9 hPa | 1.78 mm | - | 0 W/m² | - |
| 1787896383 | 17.78° C | 95% | 1044.1 hPa | 1.78 mm | - | 0 W/m² | - |
| 1787895780 | 17.78° C | 95% | 1044.2 hPa | 1.27 mm | - | 0 W/m² | - |
| 1787895175 | 17.78° C | 95% | 1044.4 hPa | 0 mm | - | 0 W/m² | - |
| 1787894572 | 18.33° C | 95% | 1045 hPa | 0 mm | - | 0 W/m² | - |
| 1787893968 | 17.78° C | 95% | 1045.4 hPa | 0 mm | - | 0 W/m² | - |
| 1787893365 | 18.33° C | 95% | 1045.3 hPa | 0 mm | - | 0 W/m² | - |
| 1787892764 | 18.33° C | 95% | 1045.4 hPa | 0 mm | - | 0 W/m² | - |
| 1787892161 | 18.33° C | 95% | 1045 hPa | 3.05 mm | - | 0 W/m² | - |
| 1787891557 | 18.33° C | 95% | 1045.5 hPa | 0 mm | - | 0 W/m² | - |
| 1787890956 | 18.33° C | 95% | 1045.3 hPa | 6.1 mm | - | 0 W/m² | - |
| 1787890357 | 18.33° C | 95% | 1045.5 hPa | 6.1 mm | - | 0 W/m² | - |
| 1787889753 | 17.78° C | 95% | 1045.2 hPa | 0 mm | - | 0 W/m² | - |
| 1787889148 | 18.33° C | 95% | 1045 hPa | 0 mm | - | 0 W/m² | - |
* Rain latest hour (hover to see other rain measurements)
** Current wind speed in m/s (hover to see current wind gust speed)